London, United Kingdom

10:08 AM BST on May 27, 2017 (GMT +0100)
Heathrow

Weather History for EGLL - November, 2010

Change the Weather History Date:

Sunday, November 21, 2010

  Actual Average Record
Temperature  
Mean Temperature 44 °F -  
Max Temperature 45 °F 46 °F 54 °F (2016)
Min Temperature 42 °F 37 °F 26 °F (2005)
Degree Days  
Heating Degree Days 22    
Moisture  
Dew Point 40 °F    
Average Humidity 85    
Maximum Humidity 93    
Minimum Humidity 71    
Precipitation  
Precipitation 0.00 in - - ()
Sea Level Pressure  
Sea Level Pressure 29.86 in    
Wind  
Wind Speed 6 mph ()    
Max Wind Speed 10 mph    
Max Gust Speed -    
Visibility 6.4 miles    
Events      
Averages and records for this station are not official NWS values.
T = Trace of Precipitation, MM = Missing Value Source: Averaged Metar Reports

Daily Weather History Graph

Daily Weather History Graph

Search for Another Location

Airport or City:

Trip Planner

Search our weather history database for the weather conditions in past years. The results will help you decide how hot, cold, wet, or windy it might be!

Date:

Astronomy

Nov. 21, 2010 Rise Set
Actual Time 7:29 AM GMT 4:05 PM GMT
Civil Twilight 6:51 AM GMT 4:43 PM GMT
Nautical Twilight 6:10 AM GMT 5:24 PM GMT
Astronomical Twilight 5:30 AM GMT 6:03 PM GMT
Moon 3:34 PM GMT (11/21) 7:23 AM GMT (11/21)
Length of Visible Light 9h 51m
Length of Day
8h 35m
Full, 100% of the Moon is Illuminated
Nov 21
Full
Nov 21
Full
Nov 28
Last Quarter
Dec 5
New
Dec 13
First Quarter

Hourly Weather History & Observations

Time (GMT) Temp. Windchill Dew Point Humidity Pressure Visibility Wind Dir Wind Speed Gust Speed Precip Events Conditions
12:20 AM 42.8 °F 38.6 °F 39.2 °F 87% 29.92 in 3.7 mi NNE 6.9 mph - N/A   Mostly Cloudy
12:50 AM 42.8 °F 38.6 °F 39.2 °F 87% 29.92 in 3.1 mi NE 6.9 mph - N/A   Haze
1:20 AM 42.8 °F 40.1 °F 39.2 °F 87% 29.89 in 4.3 mi NNE 4.6 mph - N/A   Mostly Cloudy
1:50 AM 42.8 °F 38.6 °F 39.2 °F 87% 29.89 in 4.3 mi NE 6.9 mph - N/A   Mostly Cloudy
2:20 AM 42.8 °F 39.3 °F 39.2 °F 87% 29.89 in 4.3 mi NE 5.8 mph - N/A   Mostly Cloudy
2:50 AM 43 °F - 40 °F 86% 29.90 in 5 mi NNE 5.8 mph - -   Light Haze
2:50 AM 42.8 °F 39.3 °F 39.2 °F 87% 29.89 in 4.3 mi NNE 5.8 mph - N/A   Overcast
3:20 AM 42.8 °F 39.3 °F 39.2 °F 87% 29.89 in 3.7 mi NNE 5.8 mph - N/A   Overcast
3:50 AM 42.8 °F 39.3 °F 41.0 °F 93% 29.89 in 4.3 mi NNE 5.8 mph - N/A   Overcast
4:20 AM 42.8 °F 40.1 °F 41.0 °F 93% 29.89 in 3.7 mi NE 4.6 mph - N/A   Overcast
4:50 AM 42.8 °F 40.1 °F 41.0 °F 93% 29.89 in 3.7 mi NNE 4.6 mph - N/A   Overcast
5:20 AM 42.8 °F 40.1 °F 41.0 °F 93% 29.86 in 3.7 mi NNE 4.6 mph - N/A   Overcast
5:50 AM 44 °F - 42 °F 89% 29.87 in 6 mi North 5.8 mph - -  
5:50 AM 42.8 °F 40.1 °F 41.0 °F 93% 29.86 in 3.7 mi North 4.6 mph - N/A   Overcast
6:20 AM 44.6 °F 40.7 °F 41.0 °F 87% 29.86 in 5.0 mi North 6.9 mph - N/A   Mostly Cloudy
6:50 AM 44.6 °F 41.4 °F 41.0 °F 87% 29.86 in 6.2 mi NNE 5.8 mph - N/A   Mostly Cloudy
7:20 AM 44.6 °F 40.2 °F 41.0 °F 87% 29.86 in 6.2 mi NNE 8.1 mph - N/A   Mostly Cloudy
7:50 AM 44.6 °F 40.7 °F 41.0 °F 87% 29.89 in 6.2 mi NNE 6.9 mph - N/A   Mostly Cloudy
8:20 AM 44.6 °F 40.7 °F 41.0 °F 87% 29.89 in 6.2 mi NE 6.9 mph - N/A   Mostly Cloudy
8:50 AM 44.6 °F 41.4 °F 41.0 °F 87% 29.89 in 6.2 mi NE 5.8 mph - N/A   Mostly Cloudy
9:20 AM 44.6 °F 40.2 °F 41.0 °F 87% 29.89 in 6.2 mi NNE 8.1 mph - N/A   Mostly Cloudy
9:50 AM 44.6 °F 41.4 °F 41.0 °F 87% 29.89 in 6.2 mi NNE 5.8 mph - N/A   Mostly Cloudy
10:20 AM 44.6 °F 40.2 °F 41.0 °F 87% 29.89 in 6.2 mi NNE 8.1 mph - N/A   Mostly Cloudy
10:50 AM 44.6 °F 39.7 °F 41.0 °F 87% 29.89 in 6.2 mi NNE 9.2 mph - N/A   Mostly Cloudy
11:20 AM 44.6 °F 40.7 °F 39.2 °F 81% 29.89 in 6.2 mi North 6.9 mph - N/A   Mostly Cloudy
11:50 AM 46 °F - 40 °F 74% 29.88 in 19 mi NNE 8.1 mph - -   Scattered Clouds
11:50 AM 46.4 °F 41.9 °F 39.2 °F 76% 29.86 in 6.2 mi NNE 9.2 mph - N/A   Scattered Clouds
12:20 PM 46.4 °F 42.4 °F 39.2 °F 76% 29.86 in 6.2 mi NNE 8.1 mph - N/A   Scattered Clouds
12:50 PM 44.6 °F 40.7 °F 39.2 °F 81% 29.86 in 6.2 mi NNE 6.9 mph - N/A   Mostly Cloudy
1:20 PM 46.4 °F 42.4 °F 39.2 °F 76% 29.86 in 6.2 mi NNE 8.1 mph - N/A   Mostly Cloudy
1:50 PM 44.6 °F 40.7 °F 39.2 °F 81% 29.86 in 6.2 mi NNE 6.9 mph - N/A   Scattered Clouds
2:20 PM 44.6 °F 40.2 °F 39.2 °F 81% 29.86 in 6.2 mi NNE 8.1 mph - N/A   Mostly Cloudy
2:50 PM 45 °F - 39 °F 71% 29.86 in 19 mi NNE 10.4 mph - -   Scattered Clouds
2:50 PM 44.6 °F 40.2 °F 39.2 °F 81% 29.86 in 6.2 mi NNE 8.1 mph - N/A   Mostly Cloudy
3:20 PM 44.6 °F 40.2 °F 39.2 °F 81% 29.86 in 6.2 mi North 8.1 mph - N/A   Mostly Cloudy
3:50 PM 44.6 °F 40.7 °F 39.2 °F 81% 29.86 in 6.2 mi North 6.9 mph - N/A   Scattered Clouds
4:20 PM 44.6 °F 40.7 °F 39.2 °F 81% 29.86 in 6.2 mi North 6.9 mph - N/A   Scattered Clouds
4:50 PM 44.6 °F 40.7 °F 39.2 °F 81% 29.86 in 6.2 mi North 6.9 mph - N/A   Scattered Clouds
5:20 PM 44.6 °F 40.7 °F 39.2 °F 81% 29.86 in 6.2 mi North 6.9 mph - N/A   Mostly Cloudy
5:50 PM 44 °F - 40 °F 79% 29.85 in 16 mi North 9.2 mph - -   Mostly Cloudy
5:50 PM 44.6 °F 40.7 °F 39.2 °F 81% 29.86 in 6.2 mi North 6.9 mph - N/A   Mostly Cloudy
6:20 PM 44.6 °F 40.7 °F 39.2 °F 81% 29.83 in 6.2 mi North 6.9 mph - N/A   Mostly Cloudy
6:50 PM 44.6 °F 40.7 °F 39.2 °F 81% 29.83 in 6.2 mi North 6.9 mph - N/A   Scattered Clouds
7:20 PM 44.6 °F 40.2 °F 39.2 °F 81% 29.83 in 6.2 mi North 8.1 mph - N/A   Scattered Clouds
7:50 PM 42.8 °F 38.6 °F 39.2 °F 87% 29.83 in 6.2 mi North 6.9 mph - N/A   Partly Cloudy
8:20 PM 42.8 °F 38.6 °F 39.2 °F 87% 29.83 in - North 6.9 mph - N/A   Clear
8:50 PM 43 °F - 40 °F 84% 29.84 in 11 mi North 8.1 mph - -   Mostly Cloudy
8:50 PM 42.8 °F 38.0 °F 39.2 °F 87% 29.83 in 6.2 mi North 8.1 mph - N/A   Scattered Clouds
9:20 PM 42.8 °F 38.0 °F 39.2 °F 87% 29.83 in 6.2 mi North 8.1 mph - N/A   Scattered Clouds
9:50 PM 42.8 °F 38.0 °F 39.2 °F 87% 29.83 in 6.2 mi North 8.1 mph - N/A   Mostly Cloudy
10:20 PM 42.8 °F 39.3 °F 39.2 °F 87% 29.83 in 6.2 mi North 5.8 mph - N/A   Mostly Cloudy
10:50 PM 42.8 °F 38.6 °F 39.2 °F 87% 29.83 in 6.2 mi North 6.9 mph - N/A   Scattered Clouds
11:20 PM 42.8 °F 38.6 °F 39.2 °F 87% 29.83 in 6.2 mi North 6.9 mph - N/A   Mostly Cloudy
11:50 PM 42 °F - 39 °F 87% 29.83 in 8 mi North 5.8 mph - -   Scattered Clouds
11:50 PM 42.8 °F 38.6 °F 39.2 °F 87% 29.83 in 6.2 mi North 6.9 mph - N/A   Mostly Cloudy